User: anonymous   Login
Location: Cicognara
(44.9500°N, 10.4667°E)
Time: 02:58:57
(UTC+00:00)
Language:

FALCON 9 DEB - Orbit

View from above orbital plane
View from above orbital plane
View from above satellite
View from above satellite

Ground track
Ground track

The orbit data is extracted from the following two-line orbital elements,

1 46087U 20055BN  21260.27107791  .00018646  00000-0  15927-3 0  9994
2 46087  53.0044 102.0823 0010593 167.5390 192.5890 15.69517163 68101
Epoch (UTC): 17 September 2021 06:30:21
Eccentricity: 0.0010593
inclination: 53.0044°
perigee height: 353 km
apogee height: 367 km
right ascension of ascending node: 102.0823°
argument of perigee: 167.5390°
revolutions per day: 15.69517163
mean anomaly at epoch: 192.5890°
orbit number at epoch: 6810

The dashed part of the orbit path shows where the satellite is in the earth's shadow,  

DLR